| time (UTC) | temp F | wind direction | speed MPH | gust MPH | rain 1hr in | rain 24hr in | rain mn in | humidity % | barometer mb |
| 20260507181555 | 51 | 265 | 0.0 | 3.0 | 0.00 | 0.28 | 0.03 | 84 | 1015.6 |
| 20260507180055 | 51 | 261 | 0.0 | 3.0 | 0.00 | 0.28 | 0.03 | 84 | 1015.4 |
| 20260507174605 | 51 | 273 | 0.0 | 3.0 | 0.00 | 0.42 | 0.03 | 84 | 1015.4 |
| 20260507173059 | 51 | 263 | 0.0 | 3.0 | 0.00 | 0.42 | 0.03 | 84 | 1015.2 |
| 20260507171608 | 51 | 283 | 1.0 | 3.0 | 0.00 | 0.42 | 0.03 | 84 | 1015.2 |
| 20260507170055 | 51 | 294 | 1.0 | 4.0 | 0.00 | 0.42 | 0.03 | 84 | 1015.0 |
| 20260507164602 | 52 | 270 | 0.0 | 4.0 | 0.00 | 0.42 | 0.03 | 85 | 1014.9 |
| 20260507163048 | 52 | 237 | 1.0 | 4.0 | 0.00 | 0.42 | 0.03 | 85 | 1014.8 |
| 20260507161550 | 52 | 240 | 1.0 | 4.0 | 0.00 | 0.42 | 0.03 | 87 | 1014.8 |
| 20260507160048 | 51 | 274 | 1.0 | 4.0 | 0.00 | 0.42 | 0.03 | 88 | 1014.8 |
| 20260507154546 | 50 | 250 | 1.0 | 4.0 | 0.00 | 0.42 | 0.03 | 86 | 1014.9 |
| 20260507153049 | 51 | 244 | 0.0 | 4.0 | 0.00 | 0.42 | 0.03 | 85 | 1014.9 |
| 20260507151545 | 51 | 301 | 1.0 | 4.0 | 0.00 | 0.42 | 0.03 | 85 | 1014.8 |
| 20260507150043 | 51 | 253 | 2.0 | 8.0 | 0.00 | 0.42 | 0.03 | 85 | 1014.7 |
| 20260507144541 | 51 | 247 | 1.0 | 5.0 | 0.00 | 0.42 | 0.03 | 85 | 1014.7 |
| 20260507143045 | 51 | 261 | 2.0 | 6.0 | 0.01 | 0.42 | 0.03 | 86 | 1014.5 |
| 20260507141545 | 51 | 277 | 3.0 | 9.0 | 0.01 | 0.42 | 0.03 | 86 | 1014.5 |
| 20260507140040 | 51 | 261 | 2.0 | 6.0 | 0.01 | 0.42 | 0.03 | 86 | 1014.4 |
| 20260507134547 | 50 | 290 | 2.0 | 6.0 | 0.01 | 0.42 | 0.03 | 85 | 1014.3 |
| 20260507133036 | 51 | 296 | 2.0 | 10.0 | 0.00 | 0.41 | 0.02 | 84 | 1014.3 |
| 20260507131539 | 52 | 248 | 2.0 | 4.0 | 0.00 | 0.41 | 0.02 | 86 | 1014.1 |
| 20260507130034 | 51 | 235 | 1.0 | 4.0 | 0.00 | 0.41 | 0.02 | 87 | 1014.0 |
| 20260507124533 | 51 | 273 | 1.0 | 3.0 | 0.00 | 0.41 | 0.02 | 86 | 1014.0 |
| 20260507123035 | 51 | 264 | 1.0 | 5.0 | 0.00 | 0.41 | 0.02 | 85 | 1013.9 |
| 20260507121530 | 52 | 277 | 2.0 | 8.0 | 0.00 | 0.41 | 0.02 | 86 | 1013.7 |
| 20260507120029 | 51 | 246 | 4.0 | 10.0 | 0.00 | 0.41 | 0.02 | 86 | 1013.4 |
| 20260507114531 | 51 | 235 | 2.0 | 9.0 | 0.00 | 0.41 | 0.02 | 86 | 1013.4 |
| 20260507113025 | 52 | 240 | 4.0 | 10.0 | 0.02 | 0.41 | 0.02 | 84 | 1013.0 |
| 20260507111524 | 53 | 227 | 3.0 | 8.0 | 0.02 | 0.41 | 0.02 | 87 | 1012.8 |
| 20260507110024 | 52 | 223 | 2.0 | 5.0 | 0.02 | 0.41 | 0.02 | 86 | 1012.8 |
| 20260507104525 | 51 | 232 | 3.0 | 6.0 | 0.02 | 0.41 | 0.02 | 85 | 1012.7 |
| 20260507103024 | 53 | 301 | 3.0 | 10.0 | 0.00 | 0.39 | 0.01 | 83 | 1012.7 |
| 20260507101521 | 54 | 236 | 4.0 | 9.0 | 0.00 | 0.39 | 0.01 | 85 | 1012.3 |
| 20260507100017 | 54 | 216 | 4.0 | 7.0 | 0.00 | 0.39 | 0.01 | 87 | 1012.3 |
| 20260507094626 | 52 | 215 | 4.0 | 9.0 | 0.00 | 0.39 | 0.01 | 87 | 1012.2 |
| 20260507093014 | 52 | 230 | 5.0 | 14.0 | 0.00 | 0.39 | 0.01 | 84 | 1012.2 |
| 20260507091513 | 54 | 211 | 5.0 | 10.0 | 0.00 | 0.39 | 0.01 | 82 | 1012.0 |
| 20260507090010 | 53 | 239 | 4.0 | 9.0 | 0.00 | 0.39 | 0.01 | 84 | 1011.9 |
| 20260507084506 | 52 | 208 | 3.0 | 11.0 | 0.00 | 0.39 | 0.01 | 86 | 1011.8 |
| 20260507083007 | 52 | 205 | 3.0 | 9.0 | 0.00 | 0.39 | 0.01 | 88 | 1011.7 |
| 20260507081512 | 51 | 226 | 3.0 | 7.0 | 0.00 | 0.39 | 0.01 | 88 | 1011.7 |
| 20260507080005 | 51 | 227 | 4.0 | 10.0 | 0.00 | 0.39 | 0.01 | 88 | 1011.7 |
| 20260507074515 | 50 | 217 | 5.0 | 10.0 | 0.00 | 0.39 | 0.01 | 86 | 1011.5 |
| 20260507073002 | 51 | 232 | 5.0 | 11.0 | 0.00 | 0.39 | 0.01 | 86 | 1011.3 |
| 20260507071501 | 51 | 242 | 6.0 | 10.0 | 0.00 | 0.39 | 0.01 | 85 | 1011.2 |
| 20260507070108 | 51 | 205 | 5.0 | 9.0 | 0.00 | 0.39 | 0.01 | 86 | 1011.0 |
| 20260507064600 | 51 | 229 | 4.0 | 9.0 | 0.00 | 0.39 | 0.01 | 87 | 1011.1 |
| 20260507063059 | 50 | 228 | 3.0 | 7.0 | 0.00 | 0.39 | 0.01 | 89 | 1010.9 |
| 20260507061557 | 50 | 222 | 5.0 | 8.0 | 0.00 | 0.39 | 0.01 | 89 | 1010.8 |
| 20260507060105 | 49 | 236 | 4.0 | 10.0 | 0.00 | 0.39 | 0.01 | 89 | 1010.7 |
| 20260507054556 | 49 | 236 | 3.0 | 7.0 | 0.00 | 0.39 | 0.01 | 90 | 1010.6 |
| 20260507053053 | 50 | 210 | 2.0 | 5.0 | 0.00 | 0.39 | 0.01 | 90 | 1010.4 |
| 20260507051548 | 49 | 248 | 1.0 | 7.0 | 0.00 | 0.39 | 0.01 | 90 | 1010.3 |
| 20260507050045 | 49 | 238 | 3.0 | 8.0 | 0.00 | 0.39 | 0.01 | 90 | 1010.2 |
| 20260507044544 | 49 | 269 | 2.0 | 9.0 | 0.00 | 0.39 | 0.01 | 90 | 1009.9 |
| 20260507043040 | 50 | 235 | 3.0 | 7.0 | 0.00 | 0.39 | 0.01 | 91 | 1009.8 |
| 20260507041538 | 50 | 196 | 3.0 | 6.0 | 0.00 | 0.39 | 0.01 | 91 | 1009.5 |
| 20260507040038 | 50 | 230 | 2.0 | 5.0 | 0.00 | 0.39 | 0.01 | 91 | 1009.3 |
| 20260507034551 | 50 | 240 | 3.0 | 8.0 | 0.00 | 0.39 | 0.01 | 91 | 1009.3 |
| 20260507033038 | 50 | 194 | 3.0 | 7.0 | 0.00 | 0.39 | 0.01 | 91 | 1009.2 |
| 20260507032159 | 51 | 203 | 3.0 | 7.0 | 0.00 | 0.39 | 0.01 | 91 | 1009.8 |
| 20260507031530 | 50 | 208 | 3.0 | 6.0 | 0.00 | 0.39 | 0.01 | 91 | 1009.1 |
| 20260507030029 | 51 | 199 | 3.0 | 6.0 | 0.00 | 0.39 | 0.01 | 91 | 1009.0 |
| 20260507024546 | 51 | 219 | 1.0 | 4.0 | 0.00 | 0.39 | 0.01 | 91 | 1008.8 |
| 20260507023027 | 51 | 210 | 2.0 | 5.0 | 0.00 | 0.39 | 0.01 | 91 | 1008.9 |
| 20260507022142 | 51 | 203 | 2.0 | 4.0 | 0.00 | 0.39 | 0.01 | 91 | 1009.7 |
| 20260507021525 | 51 | 222 | 2.0 | 7.0 | 0.00 | 0.39 | 0.01 | 91 | 1008.8 |
| 20260507020026 | 51 | 217 | 1.0 | 6.0 | 0.01 | 0.39 | 0.01 | 91 | 1008.8 |
| 20260507014535 | 51 | 239 | 1.0 | 4.0 | 0.01 | 0.39 | 0.01 | 91 | 1008.7 |
| 20260507013024 | 51 | 227 | 1.0 | 4.0 | 0.01 | 0.39 | 0.01 | 91 | 1008.6 |
| 20260507012125 | 52 | 225 | 1.0 | 2.0 | 0.01 | 0.39 | 0.01 | 91 | 1009.5 |
| 20260507011536 | 51 | 218 | 0.0 | 2.0 | 0.01 | 0.39 | 0.01 | 91 | 1008.7 |
| 20260507010021 | 51 | 218 | 0.0 | 5.0 | 0.00 | 0.39 | 0.00 | 91 | 1008.6 |
| 20260507004520 | 51 | 229 | 1.0 | 4.0 | 0.00 | 0.39 | 0.00 | 91 | 1008.5 |
| 20260507003021 | 51 | 231 | 2.0 | 5.0 | 0.00 | 0.39 | 0.00 | 91 | 1008.5 |
| 20260507002211 | 52 | 225 | 2.0 | 3.0 | 0.00 | 0.39 | 0.00 | 91 | 1009.2 |
| 20260507001518 | 52 | 229 | 2.0 | 6.0 | 0.00 | 0.39 | 0.00 | 91 | 1008.5 |
| 20260507000017 | 52 | 252 | 2.0 | 5.0 | 0.00 | 0.39 | 0.00 | 91 | 1008.5 |
| 20260506234516 | 52 | 224 | 1.0 | 4.0 | 0.00 | 0.39 | 0.00 | 92 | 1008.4 |
| 20260506233015 | 52 | 223 | 2.0 | 6.0 | 0.00 | 0.39 | 0.00 | 92 | 1008.4 |
| 20260506232241 | 53 | 225 | 2.0 | 4.0 | 0.00 | 0.39 | 0.00 | 92 | 1009.0 |
| 20260506231515 | 52 | 225 | 1.0 | 4.0 | 0.00 | 0.39 | 0.00 | 92 | 1008.3 |
| 20260506230015 | 52 | 208 | 0.0 | 3.0 | 0.00 | 0.39 | 0.00 | 92 | 1008.1 |
| 20260506224515 | 53 | 208 | 1.0 | 4.0 | 0.00 | 0.39 | 0.00 | 91 | 1008.1 |
| 20260506223011 | 52 | 193 | 0.0 | 3.0 | 0.00 | 0.39 | 0.00 | 91 | 1008.1 |
| 20260506222202 | 53 | 0.0 | 1.0 | 0.01 | 0.39 | 0.00 | 91 | 1008.7 | |
| 20260506221510 | 53 | 193 | 0.0 | 2.0 | 0.00 | 0.39 | 0.00 | 91 | 1008.1 |
| 20260506220009 | 53 | 193 | 0.0 | 3.0 | 0.02 | 0.39 | 0.00 | 91 | 1008.0 |
| 20260506214515 | 52 | 193 | 0.0 | 2.0 | 0.02 | 0.39 | 0.39 | 91 | 1007.9 |
| 20260506213009 | 53 | 193 | 0.0 | 2.0 | 0.02 | 0.39 | 0.39 | 91 | 1007.8 |
| 20260506212203 | 53 | 0.0 | 0.0 | 0.02 | 0.38 | 0.38 | 91 | 1007.8 | |
| 20260506211506 | 53 | 92 | 0.0 | 0.0 | 0.02 | 0.39 | 0.39 | 91 | 1007.2 |
| 20260506210006 | 53 | 89 | 1.0 | 4.0 | 0.06 | 0.37 | 0.37 | 90 | 1007.0 |
| 20260506204505 | 53 | 215 | 0.0 | 0.0 | 0.11 | 0.37 | 0.37 | 90 | 1007.5 |
| 20260506203011 | 53 | 215 | 0.0 | 0.0 | 0.15 | 0.36 | 0.36 | 90 | 1007.7 |
| 20260506202200 | 54 | 0.0 | 0.0 | 0.19 | 0.35 | 0.35 | 90 | 1008.2 | |
| 20260506201504 | 53 | 214 | 0.0 | 1.0 | 0.20 | 0.36 | 0.36 | 90 | 1007.7 |
| 20260506200005 | 53 | 215 | 1.0 | 3.0 | 0.17 | 0.31 | 0.31 | 90 | 1007.8 |
| 20260506194503 | 53 | 211 | 1.0 | 5.0 | 0.12 | 0.26 | 0.26 | 89 | 1007.5 |
| 20260506193059 | 54 | 287 | 0.0 | 3.0 | 0.08 | 0.22 | 0.22 | 89 | 1006.9 |
| 20260506192400 | 54 | 293 | 1.0 | 3.0 | 0.02 | 0.17 | 0.17 | 89 | 1006.9 |
| 20260506191600 | 54 | 267 | 1.0 | 7.0 | 0.03 | 0.17 | 0.17 | 89 | 1006.6 |
| 20260506190059 | 54 | 224 | 3.0 | 6.0 | 0.00 | 0.14 | 0.14 | 88 | 1006.0 |
| 20260506184657 | 54 | 60 | 0.0 | 2.0 | 0.00 | 0.15 | 0.14 | 88 | 1005.6 |
| 20260506183100 | 54 | 44 | 0.0 | 3.0 | 0.01 | 0.15 | 0.14 | 88 | 1005.3 |
| 20260506182332 | 55 | 45 | 3.0 | 4.0 | 0.07 | 0.15 | 0.14 | 87 | 1005.4 |